Погода в Дунгуани

Китай     23°02′39″N   113°45′20″E
темп.,
°C
ветер,
м/с
пор.,
м/с
влажн.,
%
обл.,
%
осадки,
мм/ч
давл.,
гПа
погр.,
м
7 марта, вс
вс723:00+23ссв11822 1.1 1018153
02:00+22св36822 2.0 1018436
05:00+21св367115 0.0 1018495
08:00+20св46628 0.0 1020468
11:00+24св454820 0.0 1021866
14:00+25св234949 0.0 10191260
17:00+25вюв1250100 0.0 10181302
20:00+24в235199 0.0 1020811
8 марта, пн
пн823:00+23в465592 0.0 1021713
02:00+21всв356147 0.0 1020607
05:00+20св23630 0.0 1020430
08:00+20в35620 0.0 1022548
11:00+23в225526 0.0 1022952
14:00+26ююв114520 0.0 10191258
17:00+26ююз435028 0.3 1018847
20:00+23ю336028 0.3 1019511
9 марта, вт
вт923:00+22вюв46620 0.0 1021503
02:00+21вюв236331 0.0 1020545
05:00+20в116615 0.0 1019429
08:00+20вюв23669 0.0 1022560
11:00+24вюв335225 0.0 1022971
14:00+27юв124217 0.0 10191399
17:00+26ююз33467 0.0 1018948
20:00+24ююз34554 0.0 1019344
10 марта, ср
ср1023:00+23ю12570 0.0 1021476
02:00+22юв12600 0.0 1020478
05:00+21юв24627 0.0 1020592
08:00+21вюв585834 0.0 1021627
11:00+24вюв46435 0.0 10221071
14:00+26юв56433 0.0 10191302
17:00+26юв55461 0.0 10181215
20:00+23юв565010 0.0 1020719
11 марта, чт
чт1123:00+21юв58593 0.0 1021556
02:00+20вюв47666 0.0 1020562
05:00+19в366719 0.0 1020487
08:00+19в346342 0.0 1022390
11:00+24в224977 0.0 1022566
14:00+28юз114038 0.0 10181277
17:00+28юз32380 0.0 10161545
20:00+26ююз33470 0.0 1017388